Miscellaneous Local Product
Issued by NWS North Platte, NE

Home | Current Version | Previous Version | Graphics & Text | Print | Product List | Glossary On
Versions: 1 2 3 4 5 6 7 8 9 10 11 12 13 14 15 16 17 18 19 20 21 22 23 24 25 26 27 28 29 30 31 32 33 34 35 36 37 38 39 40 41 42 43 44 45 46 47 48 49 50
897
AXUS43 KLBF 071310
MISLBF


WESTERN AND NORTH CENTRAL NEBRASKA HOURLY WEATHER ROUNDUP
NATIONAL WEATHER SERVICE NORTH PLATTE NE
700 AM CST WED DEC 07 2016

NOTE: "FAIR" INDICATES FEW OR NO CLOUDS BELOW 12,000 FEET WITH NO
SIGNIFICANT WEATHER AND/OR OBSTRUCTIONS TO VISIBILITY.

NOTE: STATIONS NOT REPORTING VARIABLES SUCH AS SKY/WEATHER OR
PRESSURE ARE PROVIDED BY RAWS AND APRS NETWORKS AND ARE NOT UNDER
NATIONAL WEATHER SERVICE QUALITY CONTROL.

...OBSERVATIONS IN AND NEAR THE EASTERN PANHANDLE OF NEBRASKA...

CITY           SKY/WX    TMP DP  RH WIND       PRES   REMARKS
PINE RIDGE     CLOUDY     4  -1  80 N6        30.23R WCI  -7
CHADRON        CLOUDY     6  -3  66 W14       30.24R WCI -11
ALLIANCE       LGT SNOW   7   2  80 N15       30.17R WCI -10
SIDNEY         LGT SNOW   9   5  84 N13       30.13R FOG     WCI  -7
CRESCENT LAKE    N/A      8   5  86 N9          N/A  WCI  -5
$$

...OBSERVATIONS IN NORTHERN NEBRASKA AND FAR SOUTHERN SOUTH DAKOTA...

CITY           SKY/WX    TMP DP  RH WIND       PRES   REMARKS
WINNER         FAIR       7  -2  66 NW20G28   30.26R WCI -13
VALENTINE      CLOUDY     7  -4  60 NW17G24   30.24R WCI -12
THEDFORD       CLOUDY    11   1  63 NW12G18   30.22R WCI  -4
AINSWORTH      CLOUDY     9   0  66 NW17G23   30.23R WCI -10
O`NEILL        CLOUDY    10   2  68 NW17G24   30.22F WCI  -7
ORD            CLOUDY    13   1  59 NW15      30.22R WCI  -3
BROKEN BOW     CLOUDY    13   1  59 NW14      30.22R WCI  -2
VALENTINE NWR    N/A      7  -3  61 NW13G22     N/A  WCI  -9
BUTTE            N/A      6  -1  74 W16G23      N/A  WCI -12
HALSEY           N/A      9  -3  58 NW8G15      N/A  WCI  -3
CHAMBERS         N/A     10  -3  55 CALM        N/A
EWING            N/A     11   4  71 NW8G20      N/A  WCI  -1
$$

...OBSERVATIONS IN SOUTHWEST NEBRASKA AND FAR NORTHEAST COLORADO...

CITY           SKY/WX    TMP DP  RH WIND       PRES   REMARKS
WRAY           CLOUDY    14  12  92 NE8       30.14R WCI   3
HOLYOKE        LGT SNOW  16  10  79 N9        30.16R WCI   4
IMPERIAL       LGT SNOW  12   7  80 N14       30.19R WCI  -3
OGALLALA       LGT SNOW  13   9  83 N8        30.20R WCI   2
NORTH PLATTE   LGT SNOW  12   3  67 N13       30.23R WCI  -3
MCCOOK         LGT SNOW  14  10  84 N8        30.22R FOG     WCI   3
LEXINGTON      CLOUDY    15   5  63 N13       30.22R WCI   2
STAPLETON        N/A      9   0  67 CALM        N/A
GOTHENBURG       N/A     13   5  70 NW9         N/A  WCI   1
CALLAWAY         N/A     11   2  66 NW14        N/A  WCI  -5
$$

...OBSERVATIONS IN CENTRAL LINCOLN COUNTY AREA...

CITY           SKY/WX    TMP DP  RH WIND       PRES   REMARKS
N.P. AIRPORT   LGT SNOW  12   3  67 N13       30.23R WCI  -3
N.P. DOWNTOWN    N/A     11   5  76 N9          N/A  WCI  -2
N.P. SOUTHEAST   N/A     11   4  73 N7G14       N/A  WCI   0
N.P. HILLCREST   N/A     11   3  68 N16G24      N/A  WCI  -6
$$

...SOME OBSERVATIONS FROM AROUND THE REGION...

CITY           SKY/WX    TMP DP  RH WIND       PRES   REMARKS
LARAMIE        CLOUDY    -7 -11  83 NW14      29.88R WCI -28
CHEYENNE       LGT SNOW   0  -5  79 N15       29.99R WCI -19
DENVER         LGT SNOW  14  11  87 E6        30.02R FOG     WCI   5
AKRON          LGT SNOW  11   8  88 NE10      30.06R FOG     WCI  -3
SCOTTSBLUFF    LGT SNOW   8   2  76 NW12      30.20R WCI  -7
RAPID CITY     CLOUDY     2  -5  72 N15       30.22R WCI -17
BISMARCK       CLOUDY     6   1  80 NW20G37   30.19R WCI -14
PIERRE         CLOUDY     8   1  73 W25       30.23R WCI -13
SIOUX FALLS    PTCLDY     9   3  77 W21G30    30.17R WCI -11
OMAHA          CLOUDY    16   7  67 NW14      30.25R WCI   2
GRAND ISLAND   CLOUDY    15   4  61 NW13      30.23R WCI   1
KANSAS CITY    CLOUDY    27  13  55 N10       30.18R WCI  17
WICHITA        CLOUDY    34  15  46 E9        30.17R WCI  27
OKLAHOMA CITY  CLOUDY    33  19  56 NE9       30.08R WCI  25
DALLAS         MOCLDY    39  34  82 CALM      30.06R
AMARILLO       CLOUDY    21  18  88 SE13      29.95R WCI   9
DODGE CITY     CLOUDY    28  18  66 E6        30.10R WCI  22
HAYS           MOCLDY    22  12  65 NE13      30.19R WCI  10
GOODLAND       LGT SNOW  16  13  88 E9        30.11R FOG     WCI   4
$$




USA.gov is the U.S. government's official web portal to all federal, state and local government web resources and services.